Back to catalog

STARLINK-30889

AliveCommunicationsVLEO
NORAD 58368·PAYLOAD·🇺🇸 United States

Launched Nov 18, 2023 from Cape Canaveral Space Force Station

Loading…

Next Passes (next 24 hours)

TLE

FreshSource: CelesTrak SupGP

Epoch: Sep 15, 2026, 02:49 UTC

1 58368C 23177T   26258.11784722  .00030079  00000+0  10894-2 0  2585
2 58368  43.0016   0.9955 0001589 263.2496 177.3052 15.27565645    11

Track STARLINK-30889 in real time with AllMySat

Download on the App Store